FW8766 Weather Reports


time (UTC)temp
C
wind
direction
speed
KPH
gust
KPH
rain 1hr
cm
rain 24hr
cm
rain mn
cm
humidity
%
barometer
mb
20260505041530 16 23 0.0 1.6 0.00 0.00 0.00 45 1009.6
20260505040720 17 358 3.2 3.2 0.00 0.00 0.00 44 1009.5
20260505035525 17 8 3.2 3.2 0.00 0.00 0.00 42 1009.3
20260505034529 18 7 3.2 3.2 0.00 0.00 0.00 40 1009.2
20260505033529 20 0 0.0 1.6 0.00 0.00 0.00 37 1009.1
20260505032526 21 270 1.6 3.2 0.00 0.00 0.00 36 1008.9
20260505031526 22 288 0.0 3.2 0.00 0.00 0.00 35 1008.9
20260505030530 23 317 3.2 4.8 0.00 0.00 0.00 32 1008.8
20260505025524 24 270 0.0 3.2 0.00 0.00 0.00 30 1008.7
20260505024515 25 323 3.2 9.7 0.00 0.00 0.00 28 1008.6
20260505023527 26 265 3.2 4.8 0.00 0.00 0.00 28 1008.8
20260505022525 26 358 3.2 4.8 0.00 0.00 0.00 27 1008.8
20260505021521 26 282 4.8 12.9 0.00 0.00 0.00 28 1008.8
20260505020518 25 309 3.2 9.7 0.00 0.00 0.00 29 1008.9
20260505015519 25 272 4.8 8.0 0.00 0.00 0.00 29 1008.9
20260505014521 25 276 4.8 8.0 0.00 0.00 0.00 29 1009.0
20260505013519 26 338 4.8 9.7 0.00 0.00 0.00 28 1009.1
20260505012519 25 267 6.4 9.7 0.00 0.00 0.00 28 1009.3
20260505011542 26 280 4.8 11.3 0.00 0.00 0.00 27 1009.2
20260505010519 26 283 6.4 9.7 0.00 0.00 0.00 28 1009.2
20260505005532 26 271 8.0 12.9 0.00 0.00 0.00 27 1009.3
20260505004527 26 262 4.8 9.7 0.00 0.00 0.00 27 1009.3
20260505003528 26 281 6.4 11.3 0.00 0.00 0.00 27 1009.3
20260505002523 26 284 6.4 9.7 0.00 0.00 0.00 27 1009.5
20260505001521 27 298 4.8 8.0 0.00 0.00 0.00 27 1009.4
20260505000534 26 269 6.4 9.7 0.00 0.00 0.00 27 1009.5
20260504235535 27 314 4.8 8.0 0.00 0.00 0.00 28 1009.5
20260504234531 26 257 6.4 14.5 0.00 0.00 0.00 27 1009.5
20260504233532 26 230 3.2 6.4 0.00 0.00 0.00 28 1009.7
20260504232529 26 303 4.8 8.0 0.00 0.00 0.00 28 1009.8
20260504231524 26 272 9.7 11.3 0.00 0.00 0.00 28 1009.7
20260504230516 26 255 6.4 12.9 0.00 0.00 0.00 28 1009.8
20260504225517 26 289 6.4 9.7 0.00 0.00 0.00 28 1009.8
20260504224530 27 283 6.4 14.5 0.00 0.00 0.00 28 1009.8
20260504223528 27 275 6.4 11.3 0.00 0.00 0.00 27 1009.9
20260504222529 27 275 6.4 9.7 0.00 0.00 0.00 27 1010.3
20260504221522 26 287 6.4 11.3 0.00 0.00 0.00 28 1010.4
20260504220516 26 240 6.4 9.7 0.00 0.00 0.00 28 1010.5
20260504215519 26 254 6.4 9.7 0.00 0.00 0.00 28 1010.5
20260504214529 26 32 4.8 9.7 0.00 0.00 0.00 28 1010.6
20260504213555 26 277 6.4 11.3 0.00 0.00 0.00 28 1010.7
20260504212527 26 259 8.0 14.5 0.00 0.00 0.00 27 1010.9
20260504211519 26 279 8.0 12.9 0.00 0.00 0.00 28 1010.9
20260504210518 26 273 6.4 11.3 0.00 0.00 0.00 30 1010.9
20260504205527 26 272 8.0 16.1 0.00 0.00 0.00 29 1010.8
20260504204546 26 266 8.0 11.3 0.00 0.00 0.00 30 1010.8
20260504203533 26 301 9.7 17.7 0.00 0.00 0.00 30 1011.0
20260504202533 26 314 6.4 14.5 0.00 0.00 0.00 30 1011.1
20260504201525 26 269 4.8 8.0 0.00 0.00 0.00 30 1011.1
20260504200526 26 10 6.4 11.3 0.00 0.00 0.00 29 1011.3
20260504195521 26 327 9.7 12.9 0.00 0.00 0.00 29 1011.4
20260504194520 26 259 9.7 14.5 0.00 0.00 0.00 29 1011.3
20260504193516 26 293 8.0 11.3 0.00 0.00 0.00 29 1011.4
20260504192543 25 284 6.4 9.7 0.00 0.00 0.00 30 1011.4
20260504191522 25 317 8.0 20.9 0.00 0.00 0.00 30 1011.4
20260504190519 25 22 8.0 11.3 0.00 0.00 0.00 31 1011.5
20260504185536 24 247 4.8 9.7 0.00 0.00 0.00 34 1011.5
20260504184527 23 265 9.7 16.1 0.00 0.00 0.00 34 1011.6
20260504183546 24 244 9.7 16.1 0.00 0.00 0.00 33 1011.6
20260504182521 23 259 4.8 9.7 0.00 0.00 0.00 36 1011.8
20260504181535 22 272 6.4 11.3 0.00 0.00 0.00 36 1012.0
20260504180531 22 280 6.4 11.3 0.00 0.00 0.00 36 1012.1
20260504175526 21 279 6.4 9.7 0.00 0.00 0.00 38 1012.1
20260504174526 21 296 4.8 8.0 0.00 0.00 0.00 38 1012.1
20260504173526 21 277 6.4 11.3 0.00 0.00 0.00 39 1012.3
20260504172521 20 287 4.8 9.7 0.00 0.00 0.00 40 1012.3
20260504171516 20 261 6.4 8.0 0.00 0.00 0.00 40 1012.5
20260504170532 20 260 6.4 9.7 0.00 0.00 0.00 40 1012.6
20260504150519 8 213 1.6 3.2 0.00 0.00 0.00 79 1013.4
20260504140518 4 0.0 0.0 0.00 0.00 0.00 97 1013.3
20260504130539 3 0.0 0.0 0.00 0.00 0.00 97 1012.9
20260504110636 5 0.0 0.0 0.00 0.00 0.00 89 1012.4
20260504100531 6 90 0.0 1.6 0.00 0.00 0.00 85 1012.5
20260504081518 8 60 1.6 3.2 0.00 0.00 0.00 73 1012.1
20260504080523 8 0.0 0.0 0.00 0.00 0.00 70 1012.0
20260504050533 13 23 1.6 3.2 0.00 0.00 0.00 53 1011.4
20260504045528 14 16 1.6 4.8 0.00 0.00 0.00 51 1011.4